Regional Weather Roundup
Issued by NWS

Home | Current Version | Previous Version | Graphics & Text | Print | Product List | Glossary On
Versions: 1 2 3 4 5 6 7 8 9 10 11 12 13 14 15 16 17 18 19 20 21 22 23 24 25 26 27 28 29 30 31 32 33 34 35 36 37 38 39 40 41 42 43 44 45 46 47 48 49 50
000
ASUS44 KMEG 252000
RWRTN
TENNESSEE HOURLY STATE WEATHER ROUNDUP
NATIONAL WEATHER SERVICE MEMPHIS TN
300 PM CDT MON MAY 25 2015

TNZ002-004-019-021-049-052-054-088>092-252100-
WEST TENNESSEE

CITY           SKY/WX    TMP DP  RH WIND       PRES   REMARKS
MEMPHIS INTL   CLOUDY    81  68  64 SE9       30.05F
NWS MEMPHIS      N/A     81 N/A N/A MISG        N/A
JACKSON        CLOUDY    76  67  73 S9        30.08F
DYERSBURG      CLOUDY    77  59  53 S5        30.07F
PARIS          CLOUDY    70  66  88 S9        30.10F
LEXINGTON      MOSUNNY   72  66  83 S9        30.09F
$$

TNZ008-025-027-028-033-062-065-066-252100-
NORTH MIDDLE TENNESSEE

CITY           SKY/WX    TMP DP  RH WIND       PRES   REMARKS
NASHVILLE      CLOUDY    73  69  87 S14       30.14F
CLARKSVILLE    CLOUDY    70  67  90 SE7       30.11F
COOKEVILLE     PTSUNNY   75  66  73 S7        30.18F
CROSSVILLE     PTSUNNY   76  62  62 MISG      30.23F
$$

TNZ061-075-076-078-094-096-097-252100-
SOUTH MIDDLE TENNESSEE

CITY           SKY/WX    TMP DP  RH WIND       PRES   REMARKS
FAYETTEVILLE   CLOUDY   N/A N/A N/A MISG      30.17F VSB 1
TULLAHOMA      MOSUNNY   72  64  78 W5        30.19F
WINCHESTER     SUNNY     79  68  69 S7        30.17F
MCMINNVILLE    PTSUNNY   70  70 100 SW10      30.19S
COLUMBIA       MOSUNNY   72  70  94 S8        30.12F
SHELBYVILLE    CLOUDY    68  68 100 SE5       30.17F
$$

TNZ017-018-042-046-047-252100-
NORTHEAST TENNESSEE

CITY           SKY/WX    TMP DP  RH WIND       PRES   REMARKS
TRI CITIES     MOSUNNY   85  55  35 CALM      30.22F
ELIZABETHTON   CLEAR     82  55  39 SE5       30.22F
$$

TNZ012-013-036-069-073-074-252100-
CENTRAL EAST TENNESSEE

CITY           SKY/WX    TMP DP  RH WIND       PRES   REMARKS
KNOXVILLE      CLOUDY    84  58  40 S12       30.18F
OAK RIDGE      CLOUDY    83  61  47 S7        30.21F
GATLINBURG       N/A     86  57  37 VRB7      30.18F
$$

TNZ083-085-099-252100-
SOUTHEAST TENNESSEE

CITY           SKY/WX    TMP DP  RH WIND       PRES   REMARKS
CHATTANOOGA    PTSUNNY   80  65  59 SE7       30.18F
$$

SKY/WX REPORTED AS FAIR MEANS FEW OR NO CLOUDS BELOW
12 THOUSAND FEET.



USA.gov is the U.S. government's official web portal to all federal, state and local government web resources and services.